Chicago DuPage, IL

6:56 AM CDT on August 20, 2017 (GMT -0500)
Du Page

Weather History for KDPA - June, 2013

Change the Weather History Date:

Sunday, June 23, 2013

  Actual Average Record
Temperature  
Mean Temperature 75 °F 72 °F  
Max Temperature 86 °F 83 °F 97 °F (2009)
Min Temperature 64 °F 61 °F 48 °F (2001)
Degree Days  
Heating Degree Days 0 0  
Month to date heating degree days 54 34  
Since 1 June heating degree days 54 34  
Since 1 July heating degree days 6583 6313  
Cooling Degree Days 10 8  
Month to date cooling degree days 84 120  
Year to date cooling degree days 161 166  
Since 1 June cooling degree days 84 120  
Growing Degree Days 25 (Base 50)    
Moisture  
Dew Point 67 °F    
Average Humidity 80    
Maximum Humidity 97    
Minimum Humidity 63    
Precipitation  
Precipitation T in 0.08 in 1.24 in (2010)
Month to date precipitation 2.45 3.26  
Year to date precipitation 19.74 16.28  
Sea Level Pressure  
Sea Level Pressure 29.99 in    
Wind  
Wind Speed 9 mph (South)    
Max Wind Speed 26 mph    
Max Gust Speed 33 mph    
Visibility 10 miles    
Events Rain    
T = Trace of Precipitation, MM = Missing Value Source: NWS Daily Summary

Daily Weather History Graph

Daily Weather History Graph

Search for Another Location

Airport or City:

Trip Planner

Search our weather history database for the weather conditions in past years. The results will help you decide how hot, cold, wet, or windy it might be!

Date:

Astronomy

Jun. 23, 2013 Rise Set
Actual Time 5:18 AM CDT 8:32 PM CDT
Civil Twilight 4:44 AM CDT 9:06 PM CDT
Nautical Twilight 3:59 AM CDT 9:50 PM CDT
Astronomical Twilight 3:06 AM CDT 10:44 PM CDT
Moon 8:42 PM CDT (6/23) 5:36 AM CDT (6/23)
Length of Visible Light 16h 22m
Length of Day
15h 13m
Full, 100% of the Moon is Illuminated
Jun 23
Full
Jun 29
Last Quarter
Jul 8
New
Jul 15
First Quarter
Jul 22
Full

Hourly Weather History & Observations

Time (CDT) Temp. Heat Index Dew Point Humidity Pressure Visibility Wind Dir Wind Speed Gust Speed Precip Events Conditions
12:52 AM 68.0 °F - 64.9 °F 90% 30.02 in 10.0 mi South 5.8 mph - N/A   Clear
1:52 AM 66.9 °F - 64.9 °F 93% 30.01 in 10.0 mi South 4.6 mph - N/A   Clear
2:52 AM 68.0 °F - 64.0 °F 87% 30.05 in 10.0 mi NNW 16.1 mph - N/A   Partly Cloudy
3:52 AM 64.9 °F - 63.0 °F 93% 30.01 in 10.0 mi SSE 5.8 mph - N/A   Clear
4:52 AM 64.9 °F - 64.0 °F 97% 30.01 in 10.0 mi South 8.1 mph - N/A   Clear
5:52 AM 66.9 °F - 64.0 °F 90% 30.03 in 9.0 mi South 3.5 mph - N/A   Clear
6:52 AM 66.9 °F - 64.9 °F 93% 30.01 in 9.0 mi South 8.1 mph - N/A   Clear
7:52 AM 70.0 °F - 66.0 °F 87% 29.98 in 10.0 mi South 9.2 mph - N/A   Clear
8:52 AM 73.9 °F - 66.0 °F 76% 29.99 in 10.0 mi South 13.8 mph - N/A   Clear
9:52 AM 75.9 °F - 66.9 °F 74% 30.00 in 10.0 mi South 13.8 mph - N/A   Clear
10:52 AM 79.0 °F - 66.9 °F 66% 30.01 in 10.0 mi SW 11.5 mph - N/A   Clear
11:52 AM 82.0 °F 85.5 °F 69.1 °F 65% 30.01 in 10.0 mi SW 11.5 mph - N/A   Clear
12:52 PM 84.0 °F 89.6 °F 72.0 °F 67% 29.99 in 10.0 mi South 10.4 mph - N/A   Clear
1:52 PM 84.9 °F 90.1 °F 71.1 °F 63% 29.98 in 10.0 mi South 9.2 mph 17.3 mph N/A   Partly Cloudy
2:52 PM 86.0 °F 93.0 °F 73.0 °F 65% 29.93 in 10.0 mi SSE 13.8 mph 20.7 mph N/A   Partly Cloudy
3:52 PM 86.0 °F 93.0 °F 73.0 °F 65% 29.94 in 10.0 mi South 12.7 mph 20.7 mph N/A   Partly Cloudy
4:52 PM 84.0 °F 89.6 °F 72.0 °F 67% 29.93 in 10.0 mi SSW 9.2 mph - N/A   Scattered Clouds
5:52 PM 78.1 °F - 66.0 °F 66% 29.95 in 10.0 mi SSW 21.9 mph 33.4 mph N/A   Scattered Clouds
6:52 PM 73.0 °F - 66.0 °F 79% 29.96 in 10.0 mi SW 9.2 mph - 0.00 in Rain Light Rain
7:52 PM 72.0 °F - 66.0 °F 81% 29.93 in 10.0 mi North 6.9 mph - 0.00 in Rain Light Rain
8:52 PM 72.0 °F - 66.9 °F 84% 29.96 in 10.0 mi West 4.6 mph - 0.00 in   Clear
9:52 PM 71.1 °F - 68.0 °F 90% 29.99 in 10.0 mi South 4.6 mph - N/A   Clear
10:52 PM 71.1 °F - 69.1 °F 93% 30.00 in 6.0 mi South 6.9 mph - N/A   Clear
11:52 PM 72.0 °F - 70.0 °F 93% 30.00 in 9.0 mi South 5.8 mph - N/A   Clear